Home   Weather   Auburn   Past weeks
Flag for USA

Past Weather in Auburn, California, USA — Yesterday and Last 2 Weeks

Now
48 °F

More clouds than sun.


Feels Like: 45 °F
Forecast: 51 / 43 °F
Wind: 7 mph from Southeast

Location: Auburn Municipal Airport

Current Time: Dec 14, 2019 at 10:25:52 am

Latest Report: Dec 14, 2019 at 9:35 am


Visibility: 10 mi

Pressure: 30.06 "Hg

Humidity: 94%

Dew Point: 46 °F

Location of AuburnLocation

Past Weather in Auburn — Graph

°F

Auburn Temperature Yesterday

Maximum temperature yesterday: 54 °F (at 12:15 am)
Minimum temperature yesterday: 50 °F (at 3:35 pm)
Average temperature yesterday: 52 °F

High & Low Weather Summary for the Past Weeks

 TemperatureHumidityPressure
High64 °F (Dec 3, 11:35 am)100% (Nov 30, 7:55 pm)30.33 "Hg (Nov 30, 7:55 pm)
Low37 °F (Nov 29, 8:15 am)37% (Nov 30, 1:35 pm)29.73 "Hg (Nov 29, 8:15 am)
Average50 °F86%30.07 "Hg
* Reported Nov 29 8:15 am — Dec 14 8:55 am, Auburn. Weather by CustomWeather, © 2019

Note: Actual official high and low records may vary slightly from our data, if they occured in-between our weather recording intervals... More about our weather records

Auburn Weather History for the Previous 24 Hours

Scroll right to see more
 ConditionsComfort  
Time TempWeatherWind HumidityBarometerVisibility
8:55 am
Sat, Dec 14
48 °FCloudy.7 mph94%30.05 "Hg10 mi
8:35 am48 °FLow clouds.No wind94%30.05 "Hg10 mi
7:55 am46 °FMore clouds than sun.6 mph100%30.04 "Hg10 mi
7:35 am48 °FMostly cloudy.5 mph94%30.04 "Hg10 mi
7:15 am48 °FLow clouds.5 mph94%30.04 "Hg10 mi
6:55 am48 °FOvercast.3 mph94%30.03 "Hg10 mi
6:35 am48 °FPassing clouds.No wind94%30.03 "Hg10 mi
5:55 am48 °FPassing clouds.No wind94%30.03 "Hg10 mi
5:35 am48 °FPassing clouds.7 mph94%30.03 "Hg10 mi
5:15 am48 °FMostly cloudy.6 mph100%30.03 "Hg10 mi
4:55 am46 °FPassing clouds.No wind100%30.02 "Hg10 mi
4:35 am48 °FPassing clouds.No wind94%30.03 "Hg10 mi
3:55 am50 °FPartly cloudy.3 mph94%30.04 "Hg10 mi
3:35 am48 °FOvercast.6 mph100%30.03 "Hg10 mi
3:15 am50 °FMostly cloudy.6 mph94%30.04 "Hg10 mi
2:55 am50 °FMostly cloudy.8 mph94%30.04 "Hg9 mi
2:35 am50 °FMostly cloudy.7 mph100%30.05 "Hg7 mi
2:15 am50 °FMostly cloudy.6 mph94%30.04 "Hg10 mi
1:55 am50 °FOvercast.7 mph100%30.04 "Hg10 mi
1:35 am50 °FOvercast.7 mph100%30.04 "Hg10 mi
1:15 am50 °FFog.9 mph100%30.03 "Hg1 mi
12:55 am50 °FFog.9 mph100%30.03 "Hg0 mi
11:55 pm
Fri, Dec 13
50 °FFog.6 mph100%30.05 "Hg1 mi
11:35 pm50 °FFog.10 mph100%30.06 "Hg3 mi
11:15 pm50 °FFog.10 mph100%30.06 "Hg1 mi
10:55 pm50 °FFog.10 mph100%30.06 "Hg1 mi
10:35 pm50 °FFog.13 mph100%30.05 "Hg4 mi
10:15 pm50 °FLow clouds.10 mph94%30.07 "Hg9 mi
9:55 pm50 °FFog.10 mph100%30.07 "Hg5 mi
9:35 pm50 °FFog.8 mph100%30.07 "Hg5 mi
9:15 pm50 °FMostly cloudy.12 mph100%30.06 "Hg7 mi
8:55 pm52 °FFog.8 mph94%30.07 "Hg6 mi
8:35 pm52 °FFog.12 mph94%30.07 "Hg6 mi
8:15 pm52 °FMostly cloudy.10 mph94%30.07 "Hg8 mi
7:55 pm52 °FMostly cloudy.12 mph94%30.07 "Hg8 mi
7:35 pm52 °FFog.10 mph94%30.08 "Hg2 mi
7:15 pm52 °FFog.13 mph94%30.08 "Hg2 mi
6:55 pm52 °FMostly cloudy.12 mph94%30.07 "Hg7 mi
6:35 pm52 °FMostly cloudy.9 mph94%30.08 "Hg9 mi
5:55 pm52 °FMostly cloudy.8 mph94%30.08 "Hg10 mi
5:35 pm52 °FMostly cloudy.9 mph94%30.08 "Hg10 mi
5:15 pm52 °FMostly cloudy.9 mph94%30.09 "Hg7 mi
4:55 pm52 °FFog.8 mph94%30.10 "Hg5 mi
4:15 pm50 °FFog.10 mph100%30.08 "Hg3 mi
3:55 pm50 °FFog.13 mph100%30.09 "Hg2 mi
3:35 pm50 °FFog.8 mph100%30.12 "Hg2 mi
3:15 pm52 °FFog.8 mph94%30.12 "Hg1 mi
2:55 pm52 °FFog.6 mph94%30.12 "Hg1 mi
2:35 pm52 °FFog.8 mph94%30.13 "Hg3 mi
2:15 pm52 °FFog.8 mph94%30.14 "Hg2 mi
1:55 pm52 °FFog.9 mph94%30.14 "Hg1 mi
1:15 pm52 °FFog.8 mph100%30.14 "Hg3 mi
12:55 pm54 °FFog.12 mph94%30.16 "Hg2 mi
12:35 pm54 °FCloudy.7 mph94%30.17 "Hg7 mi
11:55 am54 °FBroken clouds.8 mph94%30.19 "Hg9 mi
11:35 am54 °FFog.9 mph94%30.20 "Hg5 mi
10:55 am54 °FFog.5 mph100%30.25 "Hg4 mi
10:35 am54 °FFog.No wind100%30.24 "Hg2 mi
Weather by CustomWeather, © 2019

See weather overview

Advertising